TimeEST,TemperatureF,Dew PointF,Humidity,Sea Level PressureIn,VisibilityMPH,Wind Direction,Wind SpeedMPH,Gust SpeedMPH,PrecipitationIn,Events,Conditions,WindDirDegrees,DateUTC
12:15 AM,23.0,12.2,63,29.87,10.0,WNW,16.1,23.0,N/A,,Overcast,290,2013-02-17 05:15:00
12:35 AM,23.0,14.0,68,29.87,10.0,NW,18.4,21.9,N/A,,Mostly Cloudy,310,2013-02-17 05:35:00
12:55 AM,23.0,12.2,63,29.87,10.0,WNW,16.1,20.7,N/A,,Scattered Clouds,300,2013-02-17 05:55:00
1:15 AM,23.0,10.4,59,29.87,10.0,WNW,17.3,20.7,N/A,,Scattered Clouds,300,2013-02-17 06:15:00
1:35 AM,21.2,10.4,63,29.87,10.0,WNW,17.3,23.0,N/A,,Scattered Clouds,300,2013-02-17 06:35:00
1:55 AM,21.2,10.4,63,29.88,10.0,WNW,17.3,-,N/A,,Mostly Cloudy,300,2013-02-17 06:55:00
2:15 AM,21.2,15.8,80,29.88,5.0,WNW,17.3,29.9,N/A,Snow,Light Snow,300,2013-02-17 07:15:00
2:35 AM,21.2,12.2,68,29.88,10.0,WNW,13.8,25.3,N/A,,Scattered Clouds,300,2013-02-17 07:35:00
2:55 AM,21.2,10.4,63,29.88,10.0,WNW,12.7,23.0,N/A,,Scattered Clouds,290,2013-02-17 07:55:00
3:15 AM,21.2,8.6,58,29.87,10.0,WNW,23.0,29.9,N/A,,Scattered Clouds,300,2013-02-17 08:15:00
3:35 AM,19.4,6.8,58,29.88,10.0,NW,23.0,31.1,N/A,,Scattered Clouds,310,2013-02-17 08:35:00
3:55 AM,19.4,6.8,58,29.88,10.0,WNW,20.7,32.2,N/A,,Clear,290,2013-02-17 08:55:00
4:15 AM,19.4,6.8,58,29.88,10.0,WNW,19.6,27.6,N/A,,Scattered Clouds,300,2013-02-17 09:15:00
4:35 AM,19.4,10.4,68,29.90,1.2,NW,16.1,28.8,N/A,Snow,Light Snow,310,2013-02-17 09:35:00
4:55 AM,17.6,10.4,73,29.90,10.0,WNW,18.4,25.3,N/A,,Mostly Cloudy,290,2013-02-17 09:55:00
5:15 AM,17.6,10.4,73,29.91,10.0,West,17.3,26.5,N/A,,Scattered Clouds,280,2013-02-17 10:15:00
5:35 AM,17.6,3.2,53,29.91,10.0,WNW,24.2,33.4,N/A,,Clear,290,2013-02-17 10:35:00
5:55 AM,17.6,1.4,49,29.92,10.0,WNW,23.0,32.2,N/A,,Clear,300,2013-02-17 10:55:00
6:15 AM,17.6,1.4,49,29.92,10.0,WNW,24.2,32.2,N/A,,Scattered Clouds,300,2013-02-17 11:15:00
6:35 AM,17.6,1.4,49,29.92,10.0,WNW,23.0,34.5,N/A,,Scattered Clouds,300,2013-02-17 11:35:00
6:55 AM,17.6,1.4,49,29.93,10.0,NW,21.9,33.4,N/A,,Clear,310,2013-02-17 11:55:00
7:15 AM,17.6,3.2,53,29.93,10.0,WNW,24.2,29.9,N/A,,Clear,300,2013-02-17 12:15:00
7:35 AM,17.6,3.2,53,29.94,10.0,NW,20.7,35.7,N/A,,Clear,310,2013-02-17 12:35:00
7:55 AM,17.6,3.2,53,29.95,10.0,NW,26.5,38.0,N/A,,Clear,310,2013-02-17 12:55:00
8:15 AM,17.6,6.8,63,29.96,10.0,WNW,18.4,28.8,N/A,,Clear,290,2013-02-17 13:15:00
8:35 AM,17.6,6.8,63,29.96,10.0,WNW,11.5,25.3,N/A,,Scattered Clouds,290,2013-02-17 13:35:00
8:55 AM,17.6,6.8,63,29.96,10.0,WNW,17.3,32.2,N/A,,Scattered Clouds,300,2013-02-17 13:55:00
9:15 AM,17.6,6.8,63,29.98,10.0,WNW,18.4,29.9,N/A,,Scattered Clouds,300,2013-02-17 14:15:00
9:35 AM,19.4,6.8,58,29.98,10.0,WNW,24.2,35.7,N/A,,Scattered Clouds,300,2013-02-17 14:35:00
9:55 AM,19.4,6.8,58,29.99,10.0,WNW,24.2,33.4,N/A,,Scattered Clouds,290,2013-02-17 14:55:00
10:15 AM,19.4,6.8,58,30.00,10.0,WNW,27.6,36.8,N/A,,Scattered Clouds,300,2013-02-17 15:15:00
10:35 AM,21.2,6.8,54,29.99,10.0,WNW,24.2,34.5,N/A,,Scattered Clouds,300,2013-02-17 15:35:00
10:55 AM,21.2,6.8,54,30.01,10.0,West,24.2,33.4,N/A,,Scattered Clouds,280,2013-02-17 15:55:00
11:15 AM,21.2,5.0,50,30.01,10.0,NW,26.5,41.4,N/A,,Scattered Clouds,310,2013-02-17 16:15:00
11:35 AM,24.8,6.8,46,30.01,10.0,WNW,16.1,34.5,N/A,,Scattered Clouds,300,2013-02-17 16:35:00
11:55 AM,24.8,6.8,46,30.02,10.0,WNW,20.7,31.1,N/A,,Clear,300,2013-02-17 16:55:00
12:15 PM,24.8,8.6,50,30.01,10.0,WNW,24.2,29.9,N/A,,Scattered Clouds,290,2013-02-17 17:15:00
12:35 PM,24.8,6.8,46,30.01,10.0,WNW,25.3,33.4,N/A,,Scattered Clouds,300,2013-02-17 17:35:00
12:55 PM,26.6,5.0,40,30.01,10.0,WNW,19.6,31.1,N/A,,Scattered Clouds,300,2013-02-17 17:55:00
1:15 PM,26.6,3.2,37,30.00,10.0,NW,24.2,31.1,N/A,,Scattered Clouds,310,2013-02-17 18:15:00
1:55 PM,26.6,3.2,37,30.00,10.0,WNW,21.9,33.4,N/A,,Clear,300,2013-02-17 18:55:00
2:15 PM,26.6,3.2,37,30.01,10.0,WNW,20.7,31.1,N/A,,Clear,290,2013-02-17 19:15:00
2:35 PM,26.6,3.2,37,30.00,10.0,WNW,18.4,31.1,N/A,,Clear,300,2013-02-17 19:35:00
3:15 PM,28.4,1.4,31,30.01,10.0,WNW,20.7,33.4,N/A,,Clear,300,2013-02-17 20:15:00
3:35 PM,28.4,1.4,31,30.01,10.0,WNW,18.4,28.8,N/A,,Clear,290,2013-02-17 20:35:00
3:55 PM,28.4,1.4,31,30.02,10.0,West,20.7,27.6,N/A,,Clear,280,2013-02-17 20:55:00
4:15 PM,28.4,-0.4,29,30.02,10.0,West,16.1,28.8,N/A,,Clear,280,2013-02-17 21:15:00
4:35 PM,28.4,-0.4,29,30.02,10.0,WNW,20.7,31.1,N/A,,Clear,290,2013-02-17 21:35:00
4:55 PM,28.4,-0.4,29,30.04,10.0,WNW,16.1,28.8,N/A,,Clear,300,2013-02-17 21:55:00
5:15 PM,28.4,-0.4,29,30.05,10.0,WNW,20.7,29.9,N/A,,Clear,300,2013-02-17 22:15:00
5:35 PM,28.4,-0.4,29,30.06,10.0,WNW,20.7,27.6,N/A,,Clear,300,2013-02-17 22:35:00
5:55 PM,28.4,1.4,31,30.06,10.0,WNW,16.1,-,N/A,,Clear,290,2013-02-17 22:55:00
6:15 PM,28.4,1.4,31,30.07,10.0,WNW,11.5,19.6,N/A,,Clear,290,2013-02-17 23:15:00
6:35 PM,28.4,1.4,31,30.08,10.0,WNW,12.7,18.4,N/A,,Clear,290,2013-02-17 23:35:00
6:55 PM,26.6,1.4,34,30.08,10.0,West,10.4,-,N/A,,Clear,280,2013-02-17 23:55:00
7:15 PM,26.6,-0.4,31,30.09,10.0,WNW,8.1,16.1,N/A,,Clear,300,2013-02-18 00:15:00
7:35 PM,26.6,1.4,34,30.09,10.0,WNW,5.8,-,N/A,,Clear,290,2013-02-18 00:35:00
7:55 PM,26.6,-0.4,31,30.10,10.0,WNW,6.9,-,N/A,,Clear,290,2013-02-18 00:55:00
8:15 PM,26.6,1.4,34,30.10,10.0,WNW,5.8,-,N/A,,Clear,290,2013-02-18 01:15:00
8:35 PM,26.6,1.4,34,30.11,10.0,WNW,9.2,-,N/A,,Clear,290,2013-02-18 01:35:00
8:55 PM,26.6,1.4,34,30.11,10.0,WNW,9.2,-,N/A,,Clear,290,2013-02-18 01:55:00
9:15 PM,26.6,1.4,34,30.11,10.0,WNW,10.4,-,N/A,,Clear,290,2013-02-18 02:15:00
9:35 PM,26.6,1.4,34,30.12,10.0,WNW,13.8,-,N/A,,Clear,290,2013-02-18 02:35:00
9:55 PM,26.6,1.4,34,30.12,10.0,WNW,17.3,25.3,N/A,,Clear,290,2013-02-18 02:55:00
10:15 PM,26.6,1.4,34,30.12,10.0,WNW,16.1,26.5,N/A,,Clear,290,2013-02-18 03:15:00
10:35 PM,26.6,3.2,37,30.13,10.0,WNW,15.0,21.9,N/A,,Clear,290,2013-02-18 03:35:00
10:55 PM,26.6,3.2,37,30.13,10.0,WNW,8.1,-,N/A,,Clear,290,2013-02-18 03:55:00
11:15 PM,26.6,3.2,37,30.13,10.0,West,6.9,-,N/A,,Clear,280,2013-02-18 04:15:00
11:35 PM,26.6,5.0,40,30.15,10.0,West,5.8,-,N/A,,Clear,270,2013-02-18 04:35:00
11:55 PM,26.6,5.0,40,30.15,10.0,West,6.9,-,N/A,,Clear,260,2013-02-18 04:55:00